Time,TemperatureF,DewpointF,PressureIn,WindDirection,WindDirectionDegrees,WindSpeedMPH,WindSpeedGustMPH,Humidity,HourlyPrecipIn,Conditions,Clouds,dailyrainin,SoftwareType,DateUTC
2013-11-22 00:01:00,55.0,48.6,30.19,WSW,245,1.8,2.3,79,0.00,OVC,,0.00,WeatherDisplay:10.37,2013-11-22 05:01:00,
2013-11-22 00:02:00,55.0,48.6,30.19,WSW,245,1.8,2.3,79,0.00,OVC,,0.00,WeatherDisplay:10.37,2013-11-22 05:02:00,
2013-11-22 00:04:00,55.0,48.6,30.19,WSW,245,1.8,2.3,79,0.00,OVC,,0.00,WeatherDisplay:10.37,2013-11-22 05:04:00,
2013-11-22 00:09:00,55.0,48.6,30.19,SSW,199,3.5,3.5,79,0.00,OVC,,0.00,WeatherDisplay:10.37,2013-11-22 05:09:00,
2013-11-22 00:14:00,54.9,48.5,30.19,SSE,155,2.2,2.3,79,0.00,OVC,,0.00,WeatherDisplay:10.37,2013-11-22 05:14:00,
2013-11-22 00:19:00,54.9,48.5,30.19,South,177,4.2,4.6,79,0.00,OVC,,0.00,WeatherDisplay:10.37,2013-11-22 05:19:00,
2013-11-22 00:24:00,55.0,49.0,30.19,SW,222,2.5,2.5,80,0.00,OVC,,0.00,WeatherDisplay:10.37,2013-11-22 05:24:00,
2013-11-22 00:29:00,55.0,49.0,30.19,SE,132,4.5,4.6,80,0.00,OVC,,0.00,WeatherDisplay:10.37,2013-11-22 05:29:00,
2013-11-22 00:34:00,54.9,48.8,30.19,SSE,155,0.0,0.0,80,0.00,OVC,,0.00,WeatherDisplay:10.37,2013-11-22 05:34:00,
2013-11-22 00:39:00,55.0,49.3,30.20,SW,222,3.1,3.5,81,0.00,OVC,,0.00,WeatherDisplay:10.37,2013-11-22 05:39:00,
2013-11-22 00:44:00,55.0,49.3,30.20,SW,222,1.9,2.3,81,0.00,OVC,,0.00,WeatherDisplay:10.37,2013-11-22 05:44:00,
2013-11-22 00:49:00,55.0,49.3,30.20,South,177,3.9,3.9,81,0.00,OVC,,0.00,WeatherDisplay:10.37,2013-11-22 05:49:00,
2013-11-22 00:54:00,55.0,49.0,30.19,SE,132,0.0,0.0,80,0.00,OVC,,0.00,WeatherDisplay:10.37,2013-11-22 05:54:00,
2013-11-22 00:59:00,55.0,49.3,30.19,SSE,155,1.9,2.3,81,0.00,OVC,,0.00,WeatherDisplay:10.37,2013-11-22 05:59:00,
2013-11-22 01:04:00,55.0,49.3,30.19,South,177,1.2,1.2,81,0.00,OVC,,0.00,WeatherDisplay:10.37,2013-11-22 06:04:00,
2013-11-22 01:09:00,55.0,49.3,30.19,SW,222,3.5,4.6,81,0.00,OVC,,0.00,WeatherDisplay:10.37,2013-11-22 06:09:00,
2013-11-22 01:14:00,55.0,49.3,30.19,South,177,0.2,3.5,81,0.00,OVC,,0.00,WeatherDisplay:10.37,2013-11-22 06:14:00,
2013-11-22 01:19:00,55.0,49.3,30.18,South,177,2.2,2.3,81,0.00,OVC,,0.00,WeatherDisplay:10.37,2013-11-22 06:19:00,
2013-11-22 01:24:00,55.0,49.3,30.19,WSW,245,1.3,1.3,81,0.00,OVC,,0.00,WeatherDisplay:10.37,2013-11-22 06:24:00,
2013-11-22 01:29:00,55.0,49.3,30.19,WSW,245,0.0,0.0,81,0.00,OVC,,0.00,WeatherDisplay:10.37,2013-11-22 06:29:00,
2013-11-22 01:34:00,55.0,49.3,30.20,SSW,199,1.5,1.5,81,0.00,OVC,,0.00,WeatherDisplay:10.37,2013-11-22 06:34:00,
2013-11-22 01:39:00,55.0,49.3,30.19,South,177,3.6,3.6,81,0.00,OVC,,0.00,WeatherDisplay:10.37,2013-11-22 06:39:00,
2013-11-22 01:44:00,55.0,49.3,30.19,SW,222,1.1,3.5,81,0.04,RA,,0.04,WeatherDisplay:10.37,2013-11-22 06:44:00,
2013-11-22 01:49:00,55.0,49.3,30.19,WSW,245,1.8,3.5,81,0.04,RA,,0.04,WeatherDisplay:10.37,2013-11-22 06:49:00,
2013-11-22 01:54:00,55.0,49.3,30.19,SW,222,0.3,2.3,81,0.04,OVC,,0.04,WeatherDisplay:10.37,2013-11-22 06:54:00,
2013-11-22 01:59:00,55.0,49.3,30.19,South,177,2.8,3.5,81,0.04,OVC,,0.04,WeatherDisplay:10.37,2013-11-22 06:59:00,
2013-11-22 02:04:00,54.9,49.1,30.19,South,177,0.0,0.0,81,0.04,OVC,,0.04,WeatherDisplay:10.37,2013-11-22 07:04:00,
2013-11-22 02:09:00,54.9,49.1,30.18,WSW,245,1.4,2.3,81,0.04,-RA,,0.04,WeatherDisplay:10.37,2013-11-22 07:09:00,
2013-11-22 02:14:00,54.9,49.1,30.18,SE,132,0.0,0.0,81,0.04,-RA,,0.04,WeatherDisplay:10.37,2013-11-22 07:14:00,
2013-11-22 02:19:00,54.9,49.1,30.18,SSW,199,1.1,1.1,81,0.04,-RA,,0.04,WeatherDisplay:10.37,2013-11-22 07:19:00,
2013-11-22 02:24:00,54.9,49.5,30.18,SSE,155,0.0,0.0,82,0.04,-RA,,0.04,WeatherDisplay:10.37,2013-11-22 07:24:00,
2013-11-22 02:29:00,54.9,49.8,30.18,SW,222,2.2,2.3,83,0.04,-RA,,0.04,WeatherDisplay:10.37,2013-11-22 07:29:00,
2013-11-22 02:34:00,54.9,49.8,30.18,SSW,199,1.3,0.0,83,0.04,-RA,,0.04,WeatherDisplay:10.37,2013-11-22 07:34:00,
2013-11-22 02:39:00,54.9,49.8,30.18,SSE,155,0.0,0.0,83,0.04,-RA,,0.04,WeatherDisplay:10.37,2013-11-22 07:39:00,
2013-11-22 02:44:00,54.9,49.8,30.18,South,177,0.0,0.0,83,0.00,-RA,,0.04,WeatherDisplay:10.37,2013-11-22 07:44:00,
2013-11-22 02:49:00,54.9,49.8,30.18,SSW,199,0.0,0.0,83,0.00,-RA,,0.04,WeatherDisplay:10.37,2013-11-22 07:49:00,
2013-11-22 02:54:00,54.7,49.6,30.18,SSW,199,0.0,1.1,83,0.00,-RA,,0.04,WeatherDisplay:10.37,2013-11-22 07:54:00,
2013-11-22 02:59:00,54.7,49.6,30.19,SW,222,2.4,2.4,83,0.00,-RA,,0.04,WeatherDisplay:10.37,2013-11-22 07:59:00,
2013-11-22 03:04:00,54.7,49.6,30.19,SSE,155,5.6,5.8,83,0.00,-RA,,0.04,WeatherDisplay:10.37,2013-11-22 08:04:00,
2013-11-22 03:09:00,54.7,49.6,30.19,SSW,199,1.1,3.5,83,0.00,OVC,,0.04,WeatherDisplay:10.37,2013-11-22 08:09:00,
2013-11-22 03:14:00,54.7,49.6,30.20,SSW,199,2.7,2.7,83,0.00,OVC,,0.04,WeatherDisplay:10.37,2013-11-22 08:14:00,
2013-11-22 03:19:00,54.7,49.6,30.19,South,177,1.1,3.5,83,0.00,OVC,,0.04,WeatherDisplay:10.37,2013-11-22 08:19:00,
2013-11-22 03:24:00,54.7,49.6,30.19,SW,222,2.2,2.3,83,0.00,OVC,,0.04,WeatherDisplay:10.37,2013-11-22 08:24:00,
2013-11-22 03:29:00,54.9,50.1,30.19,SSE,155,4.2,4.6,84,0.00,OVC,,0.04,WeatherDisplay:10.37,2013-11-22 08:29:00,
2013-11-22 03:34:00,54.9,50.1,30.20,SW,222,2.0,3.5,84,0.00,OVC,,0.04,WeatherDisplay:10.37,2013-11-22 08:34:00,
2013-11-22 03:39:00,54.9,50.1,30.19,SSW,199,3.1,3.8,84,0.00,OVC,,0.04,WeatherDisplay:10.37,2013-11-22 08:39:00,
2013-11-22 03:44:00,54.9,50.1,30.19,SSW,199,2.2,5.8,84,0.00,OVC,,0.04,WeatherDisplay:10.37,2013-11-22 08:44:00,
2013-11-22 03:49:00,54.9,50.1,30.19,WSW,245,3.1,3.5,84,0.00,OVC,,0.04,WeatherDisplay:10.37,2013-11-22 08:49:00,
2013-11-22 03:54:00,54.9,50.1,30.19,SSW,199,4.5,4.6,84,0.00,OVC,,0.04,WeatherDisplay:10.37,2013-11-22 08:54:00,
2013-11-22 03:59:00,54.9,50.1,30.19,South,177,3.0,3.5,84,0.00,OVC,,0.04,WeatherDisplay:10.37,2013-11-22 08:59:00,
2013-11-22 04:04:00,54.9,50.1,30.19,South,177,5.1,9.2,84,0.00,OVC,,0.04,WeatherDisplay:10.37,2013-11-22 09:04:00,
2013-11-22 04:09:00,54.9,50.1,30.18,SSW,199,4.8,6.9,84,0.00,OVC,,0.04,WeatherDisplay:10.37,2013-11-22 09:09:00,
2013-11-22 04:14:00,54.9,50.1,30.18,South,177,5.5,5.8,84,0.00,OVC,,0.04,WeatherDisplay:10.37,2013-11-22 09:14:00,
2013-11-22 04:19:00,54.9,50.1,30.18,SSW,199,3.1,3.5,84,0.00,OVC,,0.04,WeatherDisplay:10.37,2013-11-22 09:19:00,
2013-11-22 04:24:00,54.9,50.1,30.18,SSW,199,6.9,6.9,84,0.00,OVC,,0.04,WeatherDisplay:10.37,2013-11-22 09:24:00,
2013-11-22 04:29:00,54.7,49.9,30.18,SSE,155,0.7,3.5,84,0.00,OVC,,0.04,WeatherDisplay:10.37,2013-11-22 09:29:00,
2013-11-22 04:34:00,54.7,49.9,30.18,South,177,2.7,2.7,84,0.00,OVC,,0.04,WeatherDisplay:10.37,2013-11-22 09:34:00,
2013-11-22 04:39:00,54.7,49.9,30.18,SW,222,2.4,3.5,84,0.00,OVC,,0.04,WeatherDisplay:10.37,2013-11-22 09:39:00,
2013-11-22 04:44:00,54.9,50.1,30.18,West,267,0.6,2.7,84,0.00,OVC,,0.04,WeatherDisplay:10.37,2013-11-22 09:44:00,
2013-11-22 04:49:00,54.9,50.1,30.18,South,177,3.6,4.0,84,0.00,OVC,,0.04,WeatherDisplay:10.37,2013-11-22 09:49:00,
2013-11-22 04:54:00,54.7,50.3,30.17,SSE,155,5.4,5.8,85,0.00,OVC,,0.04,WeatherDisplay:10.37,2013-11-22 09:54:00,
2013-11-22 04:59:00,54.7,50.3,30.17,SW,222,6.0,6.0,85,0.00,OVC,,0.04,WeatherDisplay:10.37,2013-11-22 09:59:00,
2013-11-22 05:04:00,54.9,50.4,30.18,SSW,199,9.2,9.2,85,0.00,OVC,,0.04,WeatherDisplay:10.37,2013-11-22 10:04:00,
2013-11-22 05:09:00,54.7,50.3,30.18,SSE,155,5.0,6.9,85,0.00,BKN,,0.04,WeatherDisplay:10.37,2013-11-22 10:09:00,
2013-11-22 05:14:00,54.7,50.3,30.17,SW,222,4.5,4.6,85,0.00,BKN,,0.04,WeatherDisplay:10.37,2013-11-22 10:14:00,
2013-11-22 05:19:00,54.7,50.3,30.17,WSW,245,5.3,5.8,85,0.00,BKN,,0.04,WeatherDisplay:10.37,2013-11-22 10:19:00,
2013-11-22 05:24:00,54.7,50.3,30.18,South,177,4.0,4.6,85,0.00,BKN,,0.04,WeatherDisplay:10.37,2013-11-22 10:24:00,
2013-11-22 05:29:00,54.7,50.3,30.18,South,177,3.8,3.8,85,0.00,BKN,,0.04,WeatherDisplay:10.37,2013-11-22 10:29:00,
2013-11-22 05:34:00,54.7,50.3,30.18,South,177,7.4,7.4,85,0.00,BKN,,0.04,WeatherDisplay:10.37,2013-11-22 10:34:00,
2013-11-22 05:39:00,54.7,50.3,30.18,SSW,199,5.1,5.1,85,0.00,BKN,,0.04,WeatherDisplay:10.37,2013-11-22 10:39:00,
2013-11-22 05:44:00,54.7,50.3,30.18,SSW,199,5.3,5.8,85,0.00,BKN,,0.04,WeatherDisplay:10.37,2013-11-22 10:44:00,
2013-11-22 05:49:00,54.7,50.3,30.18,ESE,109,2.9,3.5,85,0.00,BKN,,0.04,WeatherDisplay:10.37,2013-11-22 10:49:00,
2013-11-22 05:54:00,54.7,50.3,30.18,SSE,155,7.5,10.4,85,0.00,BKN,,0.04,WeatherDisplay:10.37,2013-11-22 10:54:00,
2013-11-22 06:00:00,54.7,50.6,30.17,WSW,245,4.5,4.6,86,0.00,BKN,,0.04,WeatherDisplay:10.37,2013-11-22 11:00:00,
2013-11-22 06:05:00,54.7,50.6,30.17,SSW,199,5.4,5.8,86,0.00,BKN,,0.04,WeatherDisplay:10.37,2013-11-22 11:05:00,
2013-11-22 06:10:00,54.7,50.6,30.17,SW,222,3.6,3.6,86,0.00,-RA,,0.04,WeatherDisplay:10.37,2013-11-22 11:10:00,
2013-11-22 06:15:00,54.7,50.6,30.17,SSW,199,2.7,2.7,86,0.00,-RA,,0.04,WeatherDisplay:10.37,2013-11-22 11:15:00,
2013-11-22 06:20:00,54.7,50.6,30.18,SW,222,5.6,5.8,86,0.00,-RA,,0.06,WeatherDisplay:10.37,2013-11-22 11:20:00,
2013-11-22 06:25:00,54.5,50.4,30.18,WSW,245,3.1,3.5,86,0.02,-RA,,0.06,WeatherDisplay:10.37,2013-11-22 11:25:00,
2013-11-22 06:30:00,54.5,50.4,30.18,South,177,3.4,3.5,86,0.02,-RA,,0.06,WeatherDisplay:10.37,2013-11-22 11:30:00,
2013-11-22 06:35:00,54.5,50.4,30.18,SW,222,3.0,5.8,86,0.02,-RA,,0.06,WeatherDisplay:10.37,2013-11-22 11:35:00,
2013-11-22 06:40:00,54.7,50.6,30.18,South,177,6.8,7.6,86,0.02,-RA,,0.06,WeatherDisplay:10.37,2013-11-22 11:40:00,
2013-11-22 06:45:00,54.7,50.6,30.18,South,177,2.5,3.5,86,0.02,-RA,,0.06,WeatherDisplay:10.37,2013-11-22 11:45:00,
2013-11-22 06:50:00,54.5,50.4,30.18,SSE,155,4.7,4.7,86,0.02,-RA,,0.06,WeatherDisplay:10.37,2013-11-22 11:50:00,
2013-11-22 06:55:00,54.5,50.4,30.18,SW,222,4.1,4.9,86,0.02,-RA,,0.06,WeatherDisplay:10.37,2013-11-22 11:55:00,
2013-11-22 07:00:00,54.5,50.4,30.18,SSW,199,4.1,4.6,86,0.02,-RA,,0.06,WeatherDisplay:10.37,2013-11-22 12:00:00,
2013-11-22 07:05:00,54.7,50.6,30.18,SSE,155,4.6,4.6,86,0.02,-RA,,0.06,WeatherDisplay:10.37,2013-11-22 12:05:00,
2013-11-22 07:10:00,54.5,50.4,30.18,South,177,3.4,4.0,86,0.02,-RA,,0.06,WeatherDisplay:10.37,2013-11-22 12:10:00,
2013-11-22 07:15:00,54.5,50.4,30.18,SSW,199,5.1,8.1,86,0.02,-RA,,0.06,WeatherDisplay:10.37,2013-11-22 12:15:00,
2013-11-22 07:20:00,54.5,50.4,30.18,SSW,199,6.8,6.9,86,0.02,-RA,,0.06,WeatherDisplay:10.37,2013-11-22 12:20:00,
2013-11-22 07:25:00,54.7,50.6,30.18,WSW,245,6.0,6.0,86,0.00,-RA,,0.06,WeatherDisplay:10.37,2013-11-22 12:25:00,
2013-11-22 07:30:00,54.7,50.6,30.18,WSW,245,4.0,4.0,86,0.00,-RA,,0.06,WeatherDisplay:10.37,2013-11-22 12:30:00,
2013-11-22 07:35:00,54.7,50.6,30.18,WSW,245,2.7,3.5,86,0.00,-RA,,0.06,WeatherDisplay:10.37,2013-11-22 12:35:00,
2013-11-22 07:40:00,54.7,50.6,30.18,West,267,2.5,2.5,86,0.00,-RA,,0.06,WeatherDisplay:10.37,2013-11-22 12:40:00,
2013-11-22 07:45:00,54.7,50.6,30.18,South,177,3.6,3.6,86,0.00,-RA,,0.06,WeatherDisplay:10.37,2013-11-22 12:45:00,
2013-11-22 07:50:00,54.7,50.6,30.18,SSW,199,3.8,3.8,86,0.00,-RA,,0.06,WeatherDisplay:10.37,2013-11-22 12:50:00,
2013-11-22 07:55:00,54.7,50.6,30.18,WSW,245,5.6,5.8,86,0.00,-RA,,0.06,WeatherDisplay:10.37,2013-11-22 12:55:00,
2013-11-22 08:00:00,54.7,50.6,30.18,SSW,199,3.4,5.8,86,0.00,-RA,,0.06,WeatherDisplay:10.37,2013-11-22 13:00:00,
2013-11-22 08:05:00,54.9,50.8,30.19,South,177,3.0,4.6,86,0.00,-RA,,0.06,WeatherDisplay:10.37,2013-11-22 13:05:00,
2013-11-22 08:10:00,55.0,50.9,30.19,WSW,245,5.1,5.1,86,0.00,-RA,,0.06,WeatherDisplay:10.37,2013-11-22 13:10:00,
2013-11-22 08:15:00,55.0,50.9,30.19,WSW,245,3.1,3.5,86,0.00,-RA,,0.06,WeatherDisplay:10.37,2013-11-22 13:15:00,
2013-11-22 08:20:00,55.0,50.9,30.19,SW,222,5.1,6.9,86,0.00,-RA,,0.06,WeatherDisplay:10.37,2013-11-22 13:20:00,
2013-11-22 08:25:00,55.0,50.9,30.19,WSW,245,2.0,3.5,86,0.00,-RA,,0.06,WeatherDisplay:10.37,2013-11-22 13:25:00,
2013-11-22 08:30:00,55.2,51.4,30.19,SW,222,5.4,5.8,87,0.00,-RA,,0.06,WeatherDisplay:10.37,2013-11-22 13:30:00,
2013-11-22 08:35:00,55.2,51.4,30.20,West,267,1.8,1.8,87,0.00,-RA,,0.06,WeatherDisplay:10.37,2013-11-22 13:35:00,
2013-11-22 08:40:00,55.2,51.4,30.20,West,267,3.9,6.9,87,0.00,-RA,,0.06,WeatherDisplay:10.37,2013-11-22 13:40:00,
2013-11-22 08:45:00,55.2,51.4,30.19,WSW,245,4.7,4.7,87,0.00,-RA,,0.06,WeatherDisplay:10.37,2013-11-22 13:45:00,
2013-11-22 08:50:00,55.2,51.4,30.19,West,267,3.4,4.5,87,0.00,-RA,,0.06,WeatherDisplay:10.37,2013-11-22 13:50:00,
2013-11-22 08:55:00,55.6,51.8,30.20,WSW,245,3.8,3.8,87,0.00,-RA,,0.06,WeatherDisplay:10.37,2013-11-22 13:55:00,
2013-11-22 09:00:00,55.6,51.8,30.20,WSW,245,3.6,3.6,87,0.00,-RA,,0.06,WeatherDisplay:10.37,2013-11-22 14:00:00,
2013-11-22 09:05:00,55.6,51.8,30.20,WSW,245,3.6,3.6,87,0.00,-RA,,0.06,WeatherDisplay:10.37,2013-11-22 14:05:00,
2013-11-22 09:10:00,55.6,51.8,30.20,WSW,245,4.7,4.7,87,0.00,OVC,,0.06,WeatherDisplay:10.37,2013-11-22 14:10:00,
2013-11-22 09:15:00,55.8,51.9,30.20,West,267,2.5,2.5,87,0.00,OVC,,0.06,WeatherDisplay:10.37,2013-11-22 14:15:00,
2013-11-22 09:20:00,55.9,52.1,30.20,WSW,245,5.2,5.8,87,0.02,RA,,0.08,WeatherDisplay:10.37,2013-11-22 14:20:00,
2013-11-22 09:25:00,55.8,51.9,30.21,WSW,245,2.5,5.8,87,0.02,RA,,0.08,WeatherDisplay:10.37,2013-11-22 14:25:00,
2013-11-22 09:30:00,55.9,52.1,30.20,WSW,245,3.6,4.6,87,0.02,OVC,,0.08,WeatherDisplay:10.37,2013-11-22 14:30:00,
2013-11-22 09:35:00,55.9,52.1,30.20,WSW,245,2.5,4.6,87,0.02,OVC,,0.08,WeatherDisplay:10.37,2013-11-22 14:35:00,
2013-11-22 09:40:00,55.9,52.1,30.20,WSW,245,4.7,4.7,87,0.02,OVC,,0.08,WeatherDisplay:10.37,2013-11-22 14:40:00,
2013-11-22 09:45:00,55.9,52.1,30.21,SW,222,3.8,3.8,87,0.02,OVC,,0.08,WeatherDisplay:10.37,2013-11-22 14:45:00,
2013-11-22 09:50:00,55.9,52.1,30.21,West,267,0.9,1.3,87,0.02,OVC,,0.08,WeatherDisplay:10.37,2013-11-22 14:50:00,
2013-11-22 09:55:00,55.9,52.1,30.21,West,267,0.0,1.1,87,0.02,OVC,,0.08,WeatherDisplay:10.37,2013-11-22 14:55:00,
2013-11-22 10:00:00,55.9,52.1,30.22,WSW,245,8.9,9.2,87,0.02,OVC,,0.08,WeatherDisplay:10.37,2013-11-22 15:00:00,
2013-11-22 10:05:00,55.9,52.1,30.21,WSW,245,0.8,1.6,87,0.06,RA,,0.12,WeatherDisplay:10.37,2013-11-22 15:05:00,
2013-11-22 10:10:00,56.1,52.6,30.21,WSW,245,0.9,3.1,88,0.06,-RA,,0.12,WeatherDisplay:10.37,2013-11-22 15:10:00,
2013-11-22 10:15:00,56.1,52.6,30.21,NNE,19,0.0,0.0,88,0.06,-RA,,0.12,WeatherDisplay:10.37,2013-11-22 15:15:00,
2013-11-22 10:20:00,56.1,52.6,30.21,West,267,0.4,1.1,88,0.04,-RA,,0.12,WeatherDisplay:10.37,2013-11-22 15:20:00,
2013-11-22 10:25:00,56.1,52.6,30.21,West,267,0.0,0.0,88,0.04,-RA,,0.12,WeatherDisplay:10.37,2013-11-22 15:25:00,
2013-11-22 10:30:00,56.3,52.8,30.21,West,267,2.9,3.5,88,0.08,-RA,,0.16,WeatherDisplay:10.37,2013-11-22 15:30:00,
2013-11-22 10:35:00,56.3,52.8,30.21,West,267,3.5,5.1,88,0.08,-RA,,0.16,WeatherDisplay:10.37,2013-11-22 15:35:00,
2013-11-22 10:40:00,56.5,53.0,30.21,West,267,1.8,2.3,88,0.08,-RA,,0.16,WeatherDisplay:10.37,2013-11-22 15:40:00,
2013-11-22 10:45:00,56.5,53.0,30.22,West,267,5.4,5.8,88,0.12,-RA,,0.20,WeatherDisplay:10.37,2013-11-22 15:45:00,
2013-11-22 10:50:00,56.5,53.0,30.22,SW,222,7.3,8.3,88,0.12,-RA,,0.20,WeatherDisplay:10.37,2013-11-22 15:50:00,
2013-11-22 10:55:00,56.5,53.0,30.22,WSW,245,6.3,6.3,88,0.12,-RA,,0.20,WeatherDisplay:10.37,2013-11-22 15:55:00,
2013-11-22 11:00:00,56.5,53.0,30.22,West,267,0.0,0.0,88,0.12,-RA,,0.20,WeatherDisplay:10.37,2013-11-22 16:00:00,
2013-11-22 11:05:00,56.7,53.1,30.22,WNW,289,0.9,3.1,88,0.08,-RA,,0.20,WeatherDisplay:10.37,2013-11-22 16:05:00,
2013-11-22 11:10:00,56.5,53.0,30.22,NW,312,4.7,4.7,88,0.08,-RA,,0.24,WeatherDisplay:10.37,2013-11-22 16:10:00,
2013-11-22 11:15:00,56.5,52.7,30.22,NW,312,6.0,6.0,87,0.12,-RA,,0.24,WeatherDisplay:10.37,2013-11-22 16:15:00,
2013-11-22 11:20:00,56.1,52.3,30.21,West,267,2.9,7.2,87,0.12,-RA,,0.24,WeatherDisplay:10.37,2013-11-22 16:20:00,
2013-11-22 11:25:00,56.1,52.3,30.21,NW,312,1.6,2.0,87,0.12,-RA,,0.24,WeatherDisplay:10.37,2013-11-22 16:25:00,
2013-11-22 11:30:00,55.9,52.1,30.21,NW,312,6.0,6.0,87,0.08,-RA,,0.24,WeatherDisplay:10.37,2013-11-22 16:30:00,
2013-11-22 11:35:00,55.9,52.1,30.21,WNW,289,4.3,4.3,87,0.08,-RA,,0.24,WeatherDisplay:10.37,2013-11-22 16:35:00,
2013-11-22 11:40:00,55.9,52.1,30.21,North,357,12.3,12.3,87,0.08,-RA,,0.24,WeatherDisplay:10.37,2013-11-22 16:40:00,
2013-11-22 11:45:00,55.4,51.6,30.21,NW,312,4.5,6.9,87,0.04,-RA,,0.24,WeatherDisplay:10.37,2013-11-22 16:45:00,
2013-11-22 11:50:00,55.2,51.4,30.21,NNW,335,6.3,6.3,87,0.04,-RA,,0.24,WeatherDisplay:10.37,2013-11-22 16:50:00,
2013-11-22 11:55:00,55.0,51.2,30.21,WNW,289,4.1,5.8,87,0.04,-RA,,0.24,WeatherDisplay:10.37,2013-11-22 16:55:00,
2013-11-22 12:00:00,55.0,51.2,30.21,NW,312,5.8,5.8,87,0.04,-RA,,0.24,WeatherDisplay:10.37,2013-11-22 17:00:00,
2013-11-22 12:05:00,55.0,51.2,30.21,NW,312,2.9,4.6,87,0.04,-RA,,0.24,WeatherDisplay:10.37,2013-11-22 17:05:00,
2013-11-22 12:10:00,54.9,51.1,30.21,NW,312,4.0,8.1,87,0.04,OVC,,0.24,WeatherDisplay:10.37,2013-11-22 17:10:00,
2013-11-22 12:15:00,54.9,51.1,30.21,NW,312,4.0,8.1,87,0.00,OVC,,0.24,WeatherDisplay:10.37,2013-11-22 17:15:00,
2013-11-22 12:20:00,54.1,50.4,30.21,NW,312,8.3,10.4,87,0.00,OVC,,0.24,WeatherDisplay:10.37,2013-11-22 17:20:00,
2013-11-22 12:25:00,54.1,50.4,30.21,NW,312,8.3,10.4,87,0.00,OVC,,0.24,WeatherDisplay:10.37,2013-11-22 17:25:00,
2013-11-22 12:30:00,54.1,50.4,30.21,NW,312,8.3,10.4,87,0.00,OVC,,0.24,WeatherDisplay:10.37,2013-11-22 17:30:00,
2013-11-22 12:35:00,54.1,50.4,30.21,NW,312,8.3,10.4,87,0.00,OVC,,0.24,WeatherDisplay:10.37,2013-11-22 17:35:00,
2013-11-22 12:40:00,53.4,49.6,30.21,WNW,289,10.1,10.1,87,0.00,OVC,,0.24,WeatherDisplay:10.37,2013-11-22 17:40:00,
2013-11-22 12:45:00,53.4,49.6,30.21,West,267,6.5,6.9,87,0.00,OVC,,0.24,WeatherDisplay:10.37,2013-11-22 17:45:00,
2013-11-22 12:50:00,53.4,49.6,30.21,West,267,6.5,6.5,87,0.00,OVC,,0.24,WeatherDisplay:10.37,2013-11-22 17:50:00,
2013-11-22 12:55:00,52.9,49.1,30.21,West,267,3.2,3.5,87,0.00,OVC,,0.24,WeatherDisplay:10.37,2013-11-22 17:55:00,
2013-11-22 13:00:00,52.9,49.1,30.21,West,267,3.6,4.6,87,0.00,OVC,,0.24,WeatherDisplay:10.37,2013-11-22 18:00:00,
2013-11-22 13:05:00,52.7,48.9,30.21,NNW,335,1.5,1.5,87,0.04,RA,,0.28,WeatherDisplay:10.37,2013-11-22 18:05:00,
2013-11-22 13:10:00,52.5,48.8,30.21,NW,312,14.3,14.3,87,0.04,RA,,0.28,WeatherDisplay:10.37,2013-11-22 18:10:00,
2013-11-22 13:15:00,52.3,48.6,30.21,NNW,335,8.5,8.5,87,0.04,OVC,,0.28,WeatherDisplay:10.37,2013-11-22 18:15:00,
2013-11-22 13:20:00,52.2,48.4,30.21,WNW,289,4.2,4.6,87,0.04,OVC,,0.28,WeatherDisplay:10.37,2013-11-22 18:20:00,
2013-11-22 13:25:00,52.0,48.2,30.21,NNW,335,6.5,6.9,87,0.04,OVC,,0.28,WeatherDisplay:10.37,2013-11-22 18:25:00,
2013-11-22 13:30:00,51.6,47.9,30.21,NW,312,9.7,10.4,87,0.06,RA,,0.30,WeatherDisplay:10.37,2013-11-22 18:30:00,
2013-11-22 13:35:00,51.6,47.9,30.21,NW,312,5.9,6.7,87,0.06,RA,,0.30,WeatherDisplay:10.37,2013-11-22 18:35:00,
2013-11-22 13:40:00,51.4,47.7,30.21,West,267,3.1,4.6,87,0.06,OVC,,0.30,WeatherDisplay:10.37,2013-11-22 18:40:00,
2013-11-22 13:45:00,51.4,47.7,30.21,NW,312,6.0,7.8,87,0.06,OVC,,0.30,WeatherDisplay:10.37,2013-11-22 18:45:00,
2013-11-22 13:50:00,51.4,48.0,30.21,NE,42,7.3,13.8,88,0.06,OVC,,0.30,WeatherDisplay:10.37,2013-11-22 18:50:00,
2013-11-22 13:55:00,51.3,47.8,30.21,NNW,335,4.7,6.9,88,0.10,RA,,0.34,WeatherDisplay:10.37,2013-11-22 18:55:00,
2013-11-22 14:00:00,51.3,47.8,30.22,North,357,3.8,9.2,88,0.10,RA,,0.34,WeatherDisplay:10.37,2013-11-22 19:00:00,
2013-11-22 14:05:00,50.9,47.5,30.21,North,357,6.8,8.1,88,0.10,RA,,0.38,WeatherDisplay:10.37,2013-11-22 19:05:00,
2013-11-22 14:10:00,50.7,47.3,30.22,WNW,289,7.4,7.4,88,0.14,RA,,0.43,WeatherDisplay:10.37,2013-11-22 19:10:00,
2013-11-22 14:15:00,50.7,47.3,30.22,West,267,2.7,2.7,88,0.14,RA,,0.43,WeatherDisplay:10.37,2013-11-22 19:15:00,
2013-11-22 14:20:00,50.5,47.1,30.22,West,267,5.5,5.8,88,0.18,RA,,0.47,WeatherDisplay:10.37,2013-11-22 19:20:00,
2013-11-22 14:25:00,50.5,47.1,30.22,NW,312,11.4,11.5,88,0.18,RA,,0.47,WeatherDisplay:10.37,2013-11-22 19:25:00,
2013-11-22 14:30:00,50.4,46.9,30.22,NW,312,8.2,8.2,88,0.16,OVC,,0.47,WeatherDisplay:10.37,2013-11-22 19:30:00,
2013-11-22 14:35:00,50.2,46.8,30.22,NNW,335,3.5,3.6,88,0.16,OVC,,0.51,WeatherDisplay:10.37,2013-11-22 19:35:00,
2013-11-22 14:40:00,50.2,46.8,30.22,West,267,2.1,3.5,88,0.20,RA,,0.51,WeatherDisplay:10.37,2013-11-22 19:40:00,
2013-11-22 14:45:00,50.2,46.8,30.23,NW,312,7.8,8.1,88,0.20,RA,,0.51,WeatherDisplay:10.37,2013-11-22 19:45:00,
2013-11-22 14:50:00,50.2,46.8,30.22,West,267,2.5,4.6,88,0.20,OVC,,0.51,WeatherDisplay:10.37,2013-11-22 19:50:00,
2013-11-22 14:55:00,50.2,46.8,30.23,NW,312,10.5,10.5,88,0.16,OVC,,0.51,WeatherDisplay:10.37,2013-11-22 19:55:00,
2013-11-22 15:00:00,50.2,46.8,30.22,NNW,335,4.2,9.8,88,0.16,OVC,,0.51,WeatherDisplay:10.37,2013-11-22 20:00:00,
2013-11-22 15:05:00,49.8,46.4,30.23,West,267,7.7,9.2,88,0.12,OVC,,0.51,WeatherDisplay:10.37,2013-11-22 20:05:00,
2013-11-22 15:10:00,49.8,46.4,30.23,WNW,289,8.9,9.2,88,0.12,OVC,,0.51,WeatherDisplay:10.37,2013-11-22 20:10:00,
2013-11-22 15:15:00,49.8,46.4,30.24,WNW,289,7.8,8.1,88,0.08,OVC,,0.51,WeatherDisplay:10.37,2013-11-22 20:15:00,
2013-11-22 15:20:00,49.6,46.2,30.24,NW,312,6.6,12.7,88,0.04,OVC,,0.51,WeatherDisplay:10.37,2013-11-22 20:20:00,
2013-11-22 15:25:00,49.3,45.9,30.23,NW,312,9.9,10.4,88,0.04,OVC,,0.51,WeatherDisplay:10.37,2013-11-22 20:25:00,
2013-11-22 15:30:00,49.5,46.1,30.24,NW,312,4.2,4.6,88,0.04,OVC,,0.51,WeatherDisplay:10.37,2013-11-22 20:30:00,
2013-11-22 15:35:00,49.3,45.9,30.24,NNW,335,5.4,6.9,88,0.04,OVC,,0.51,WeatherDisplay:10.37,2013-11-22 20:35:00,
2013-11-22 15:40:00,49.3,45.9,30.24,WNW,289,3.1,4.6,88,0.00,OVC,,0.51,WeatherDisplay:10.37,2013-11-22 20:40:00,
2013-11-22 15:45:00,49.1,45.7,30.24,NW,312,6.5,6.9,88,0.00,OVC,,0.51,WeatherDisplay:10.37,2013-11-22 20:45:00,
2013-11-22 15:50:00,49.1,45.7,30.24,NW,312,14.9,15.0,88,0.00,OVC,,0.51,WeatherDisplay:10.37,2013-11-22 20:50:00,
2013-11-22 15:55:00,49.3,45.9,30.24,WNW,289,9.6,9.6,88,0.00,OVC,,0.51,WeatherDisplay:10.37,2013-11-22 20:55:00,
2013-11-22 16:00:00,49.1,45.7,30.24,NNW,335,6.3,6.3,88,0.00,OVC,,0.51,WeatherDisplay:10.37,2013-11-22 21:00:00,
2013-11-22 16:05:00,49.3,45.9,30.25,NW,312,10.6,10.6,88,0.00,OVC,,0.51,WeatherDisplay:10.37,2013-11-22 21:05:00,
2013-11-22 16:10:00,49.3,45.9,30.25,North,357,15.0,16.1,88,0.00,OVC,,0.51,WeatherDisplay:10.37,2013-11-22 21:10:00,
2013-11-22 16:15:00,49.1,45.4,30.25,NNW,335,6.7,6.9,87,0.00,OVC,,0.51,WeatherDisplay:10.37,2013-11-22 21:15:00,
2013-11-22 16:20:00,49.1,45.4,30.25,NNW,335,8.3,8.3,87,0.00,OVC,,0.51,WeatherDisplay:10.37,2013-11-22 21:20:00,
2013-11-22 16:25:00,49.1,45.4,30.25,NW,312,3.6,6.9,87,0.00,OVC,,0.51,WeatherDisplay:10.37,2013-11-22 21:25:00,
2013-11-22 16:30:00,49.1,45.4,30.24,WNW,289,7.2,7.2,87,0.00,OVC,,0.51,WeatherDisplay:10.37,2013-11-22 21:30:00,
2013-11-22 16:35:00,49.1,45.4,30.24,NNW,335,3.5,3.5,87,0.00,OVC,,0.51,WeatherDisplay:10.37,2013-11-22 21:35:00,
2013-11-22 16:40:00,49.1,45.4,30.24,NNW,335,4.8,6.0,87,0.00,OVC,,0.51,WeatherDisplay:10.37,2013-11-22 21:40:00,
2013-11-22 16:45:00,48.9,45.2,30.24,WNW,289,2.0,3.5,87,0.00,OVC,,0.51,WeatherDisplay:10.37,2013-11-22 21:45:00,
2013-11-22 16:50:00,48.7,45.0,30.25,NNW,335,9.4,10.5,87,0.00,OVC,,0.51,WeatherDisplay:10.37,2013-11-22 21:50:00,
2013-11-22 16:55:00,48.6,44.9,30.26,NNW,335,5.1,6.9,87,0.00,OVC,,0.51,WeatherDisplay:10.37,2013-11-22 21:55:00,
2013-11-22 17:00:00,48.2,44.5,30.26,WNW,289,5.8,9.6,87,0.00,OVC,,0.51,WeatherDisplay:10.37,2013-11-22 22:00:00,
2013-11-22 17:05:00,48.0,44.3,30.26,NW,312,6.1,10.7,87,0.00,OVC,,0.51,WeatherDisplay:10.37,2013-11-22 22:05:00,
2013-11-22 17:10:00,48.0,44.6,30.26,NNW,335,4.9,8.1,88,0.00,-DZ,,0.51,WeatherDisplay:10.37,2013-11-22 22:10:00,
2013-11-22 17:15:00,47.8,44.5,30.26,NNW,335,6.7,6.9,88,0.00,-DZ,,0.51,WeatherDisplay:10.37,2013-11-22 22:15:00,
2013-11-22 17:20:00,47.8,44.5,30.26,North,357,3.3,7.6,88,0.00,-DZ,,0.51,WeatherDisplay:10.37,2013-11-22 22:20:00,
2013-11-22 17:25:00,47.8,44.5,30.26,NW,312,5.8,6.9,88,0.00,-DZ,,0.51,WeatherDisplay:10.37,2013-11-22 22:25:00,
2013-11-22 17:30:00,47.7,44.3,30.27,NNE,19,5.2,6.0,88,0.00,-DZ,,0.51,WeatherDisplay:10.37,2013-11-22 22:30:00,
2013-11-22 17:35:00,47.5,44.1,30.28,North,357,6.6,7.8,88,0.00,-DZ,,0.51,WeatherDisplay:10.37,2013-11-22 22:35:00,
2013-11-22 17:40:00,47.3,43.9,30.27,North,357,8.9,9.2,88,0.00,-DZ,,0.51,WeatherDisplay:10.37,2013-11-22 22:40:00,
2013-11-22 17:45:00,46.9,43.6,30.27,NW,312,12.5,12.7,88,0.00,-DZ,,0.51,WeatherDisplay:10.37,2013-11-22 22:45:00,
2013-11-22 17:50:00,46.8,43.4,30.27,NNW,335,1.7,2.3,88,0.00,-DZ,,0.51,WeatherDisplay:10.37,2013-11-22 22:50:00,
2013-11-22 17:55:00,46.6,43.2,30.29,NNW,335,6.3,6.3,88,0.00,-DZ,,0.51,WeatherDisplay:10.37,2013-11-22 22:55:00,
2013-11-22 18:00:00,46.6,43.2,30.28,SE,132,0.0,0.0,88,0.00,-DZ,,0.51,WeatherDisplay:10.37,2013-11-22 23:00:00,
2013-11-22 18:05:00,46.2,42.9,30.28,NW,312,9.7,13.8,88,0.00,-DZ,,0.51,WeatherDisplay:10.37,2013-11-22 23:05:00,
2013-11-22 18:10:00,46.0,42.7,30.29,NE,42,5.1,8.1,88,0.00,OVC,,0.51,WeatherDisplay:10.37,2013-11-22 23:10:00,
2013-11-22 18:15:00,46.0,42.7,30.30,West,267,3.4,8.1,88,0.00,OVC,,0.51,WeatherDisplay:10.37,2013-11-22 23:15:00,
2013-11-22 18:20:00,45.7,42.3,30.30,NW,312,9.5,11.6,88,0.00,OVC,,0.51,WeatherDisplay:10.37,2013-11-22 23:20:00,
2013-11-22 18:25:00,45.7,42.3,30.29,NW,312,9.4,9.4,88,0.00,OVC,,0.51,WeatherDisplay:10.37,2013-11-22 23:25:00,
2013-11-22 18:30:00,45.7,42.3,30.29,NW,312,6.5,6.9,88,0.00,OVC,,0.51,WeatherDisplay:10.37,2013-11-22 23:30:00,
2013-11-22 18:35:00,45.5,42.2,30.30,NW,312,6.7,6.7,88,0.00,OVC,,0.51,WeatherDisplay:10.37,2013-11-22 23:35:00,
2013-11-22 18:40:00,45.5,42.2,30.30,North,357,4.0,4.6,88,0.00,OVC,,0.51,WeatherDisplay:10.37,2013-11-22 23:40:00,
2013-11-22 18:45:00,45.3,42.0,30.31,NNW,335,5.8,5.8,88,0.00,OVC,,0.51,WeatherDisplay:10.37,2013-11-22 23:45:00,
2013-11-22 18:50:00,45.3,42.0,30.30,NNW,335,6.5,6.9,88,0.00,OVC,,0.51,WeatherDisplay:10.37,2013-11-22 23:50:00,
2013-11-22 18:55:00,45.3,42.0,30.30,NNW,335,6.7,6.9,88,0.00,OVC,,0.51,WeatherDisplay:10.37,2013-11-22 23:55:00,
2013-11-22 19:00:00,45.1,41.8,30.30,NW,312,5.8,5.8,88,0.00,OVC,,0.51,WeatherDisplay:10.37,2013-11-23 00:00:00,
2013-11-22 19:05:00,45.1,41.8,30.30,NNW,335,4.2,5.1,88,0.00,OVC,,0.51,WeatherDisplay:10.37,2013-11-23 00:05:00,
2013-11-22 19:10:00,45.1,41.8,30.30,WNW,289,8.0,8.1,88,0.00,OVC,,0.51,WeatherDisplay:10.37,2013-11-23 00:10:00,
2013-11-22 19:15:00,45.1,41.5,30.30,NNW,335,2.0,5.1,87,0.00,OVC,,0.51,WeatherDisplay:10.37,2013-11-23 00:15:00,
2013-11-22 19:20:00,45.1,41.5,30.30,NNE,19,8.0,8.1,87,0.00,OVC,,0.51,WeatherDisplay:10.37,2013-11-23 00:20:00,
2013-11-22 19:25:00,45.0,41.3,30.31,NW,312,6.9,6.9,87,0.00,OVC,,0.51,WeatherDisplay:10.37,2013-11-23 00:25:00,
2013-11-22 19:30:00,45.0,41.3,30.31,NNW,335,4.8,4.8,87,0.00,OVC,,0.51,WeatherDisplay:10.37,2013-11-23 00:30:00,
2013-11-22 19:35:00,45.0,41.0,30.30,NNE,19,7.2,7.2,86,0.00,OVC,,0.51,WeatherDisplay:10.37,2013-11-23 00:35:00,
2013-11-22 19:40:00,45.0,41.0,30.31,NNW,335,7.2,8.1,86,0.00,OVC,,0.51,WeatherDisplay:10.37,2013-11-23 00:40:00,
2013-11-22 19:45:00,44.8,40.8,30.31,NW,312,7.2,7.2,86,0.00,OVC,,0.51,WeatherDisplay:10.37,2013-11-23 00:45:00,
2013-11-22 19:50:00,44.8,40.5,30.31,WNW,289,4.3,4.7,85,0.00,OVC,,0.51,WeatherDisplay:10.37,2013-11-23 00:50:00,
2013-11-22 19:55:00,44.6,40.4,30.31,NNW,335,5.8,5.8,85,0.00,OVC,,0.51,WeatherDisplay:10.37,2013-11-23 00:55:00,
2013-11-22 20:00:00,44.6,40.4,30.31,NW,312,2.0,8.1,85,0.00,OVC,,0.51,WeatherDisplay:10.37,2013-11-23 01:00:00,
2013-11-22 20:05:00,44.4,40.2,30.32,NNW,335,5.3,5.8,85,0.00,OVC,,0.51,WeatherDisplay:10.37,2013-11-23 01:05:00,
2013-11-22 20:10:00,44.4,39.9,30.32,NNW,335,5.4,5.8,84,0.00,OVC,,0.51,WeatherDisplay:10.37,2013-11-23 01:10:00,
2013-11-22 20:15:00,44.4,39.9,30.33,NNW,335,7.6,8.1,84,0.00,OVC,,0.51,WeatherDisplay:10.37,2013-11-23 01:15:00,
2013-11-22 20:20:00,44.2,39.4,30.34,NW,312,5.8,5.8,83,0.00,OVC,,0.51,WeatherDisplay:10.37,2013-11-23 01:20:00,
2013-11-22 20:25:00,44.2,39.4,30.32,North,357,3.1,4.6,83,0.00,OVC,,0.51,WeatherDisplay:10.37,2013-11-23 01:25:00,
2013-11-22 20:30:00,44.2,39.4,30.33,NNW,335,11.9,12.7,83,0.00,OVC,,0.51,WeatherDisplay:10.37,2013-11-23 01:30:00,
2013-11-22 20:35:00,44.1,39.2,30.32,NNW,335,3.8,4.6,83,0.00,OVC,,0.51,WeatherDisplay:10.37,2013-11-23 01:35:00,
2013-11-22 20:40:00,44.1,38.9,30.32,NE,42,2.5,6.9,82,0.00,OVC,,0.51,WeatherDisplay:10.37,2013-11-23 01:40:00,
2013-11-22 20:45:00,43.9,38.7,30.33,WNW,289,13.9,13.9,82,0.00,OVC,,0.51,WeatherDisplay:10.37,2013-11-23 01:45:00,
2013-11-22 20:50:00,43.9,38.7,30.33,NNW,335,11.8,13.8,82,0.00,OVC,,0.51,WeatherDisplay:10.37,2013-11-23 01:50:00,
2013-11-22 20:55:00,43.7,38.6,30.33,NNW,335,9.2,9.2,82,0.00,OVC,,0.51,WeatherDisplay:10.37,2013-11-23 01:55:00,
2013-11-22 21:00:00,43.5,38.4,30.34,NNW,335,9.8,10.4,82,0.00,OVC,,0.51,WeatherDisplay:10.37,2013-11-23 02:00:00,
2013-11-22 21:05:00,43.5,38.4,30.34,NNW,335,9.6,10.5,82,0.00,OVC,,0.51,WeatherDisplay:10.37,2013-11-23 02:05:00,
2013-11-22 21:10:00,43.5,38.1,30.34,North,357,8.0,8.1,81,0.00,OVC,,0.51,WeatherDisplay:10.37,2013-11-23 02:10:00,
2013-11-22 21:15:00,43.3,37.9,30.34,NW,312,13.4,13.8,81,0.00,OVC,,0.51,WeatherDisplay:10.37,2013-11-23 02:15:00,
2013-11-22 21:20:00,43.2,37.7,30.35,NE,42,3.4,4.6,81,0.00,OVC,,0.51,WeatherDisplay:10.37,2013-11-23 02:20:00,
2013-11-22 21:25:00,43.2,37.7,30.34,North,357,7.6,8.1,81,0.00,OVC,,0.51,WeatherDisplay:10.37,2013-11-23 02:25:00,
2013-11-22 21:30:00,43.0,37.5,30.34,NW,312,4.9,8.0,81,0.00,OVC,,0.51,WeatherDisplay:10.37,2013-11-23 02:30:00,
2013-11-22 21:35:00,43.0,37.5,30.34,NNW,335,7.2,8.0,81,0.00,OVC,,0.51,WeatherDisplay:10.37,2013-11-23 02:35:00,
2013-11-22 21:40:00,43.0,37.5,30.34,North,357,9.2,9.2,81,0.00,OVC,,0.51,WeatherDisplay:10.37,2013-11-23 02:40:00,
2013-11-22 21:45:00,42.8,37.4,30.33,North,357,5.8,5.8,81,0.00,OVC,,0.51,WeatherDisplay:10.37,2013-11-23 02:45:00,
2013-11-22 21:50:00,42.8,37.4,30.34,NNW,335,8.3,8.3,81,0.00,OVC,,0.51,WeatherDisplay:10.37,2013-11-23 02:50:00,
2013-11-22 21:55:00,42.6,37.2,30.34,NNW,335,3.7,4.5,81,0.00,OVC,,0.51,WeatherDisplay:10.37,2013-11-23 02:55:00,
2013-11-22 22:00:00,42.6,37.2,30.34,NNE,19,6.9,6.9,81,0.00,OVC,,0.51,WeatherDisplay:10.37,2013-11-23 03:00:00,
2013-11-22 22:05:00,42.4,37.0,30.34,NNW,335,17.2,17.2,81,0.00,OVC,,0.51,WeatherDisplay:10.37,2013-11-23 03:05:00,
2013-11-22 22:10:00,42.4,37.0,30.34,NNE,19,5.3,5.8,81,0.00,OVC,,0.51,WeatherDisplay:10.37,2013-11-23 03:10:00,
2013-11-22 22:15:00,42.3,36.5,30.34,North,357,4.0,5.8,80,0.00,OVC,,0.51,WeatherDisplay:10.37,2013-11-23 03:15:00,
2013-11-22 22:20:00,42.1,36.4,30.34,NW,312,3.0,4.2,80,0.00,OVC,,0.51,WeatherDisplay:10.37,2013-11-23 03:20:00,
2013-11-22 22:25:00,42.1,36.4,30.35,NE,42,3.1,3.5,80,0.00,OVC,,0.51,WeatherDisplay:10.37,2013-11-23 03:25:00,
2013-11-22 22:30:00,42.1,36.7,30.35,NE,42,2.9,3.5,81,0.00,OVC,,0.51,WeatherDisplay:10.37,2013-11-23 03:30:00,
2013-11-22 22:35:00,41.9,36.5,30.36,NE,42,11.8,11.8,81,0.00,OVC,,0.51,WeatherDisplay:10.37,2013-11-23 03:35:00,
2013-11-22 22:40:00,41.9,36.2,30.36,ENE,65,6.3,6.9,80,0.00,OVC,,0.51,WeatherDisplay:10.37,2013-11-23 03:40:00,
2013-11-22 22:45:00,41.7,36.0,30.35,North,357,6.0,6.0,80,0.00,OVC,,0.51,WeatherDisplay:10.37,2013-11-23 03:45:00,
2013-11-22 22:50:00,41.7,36.0,30.35,North,357,5.2,5.2,80,0.00,OVC,,0.51,WeatherDisplay:10.37,2013-11-23 03:50:00,
2013-11-22 22:55:00,41.5,35.5,30.35,NE,42,4.6,5.8,79,0.00,OVC,,0.51,WeatherDisplay:10.37,2013-11-23 03:55:00,
2013-11-22 23:00:00,41.5,35.5,30.35,ENE,65,5.4,5.8,79,0.00,OVC,,0.51,WeatherDisplay:10.37,2013-11-23 04:00:00,
2013-11-22 23:05:00,41.4,35.3,30.35,ENE,65,5.4,0.0,79,0.00,OVC,,0.51,WeatherDisplay:10.37,2013-11-23 04:05:00,
2013-11-22 23:10:00,41.4,35.0,30.35,NNE,19,0.0,3.5,78,0.00,OVC,,0.51,WeatherDisplay:10.37,2013-11-23 04:10:00,
2013-11-22 23:15:00,41.2,34.8,30.34,NNW,335,3.1,4.5,78,0.00,OVC,,0.51,WeatherDisplay:10.37,2013-11-23 04:15:00,
2013-11-22 23:20:00,41.2,34.8,30.34,NE,42,4.4,4.6,78,0.00,OVC,,0.51,WeatherDisplay:10.37,2013-11-23 04:20:00,
2013-11-22 23:25:00,41.2,34.8,30.34,NNW,335,3.6,3.6,78,0.00,OVC,,0.51,WeatherDisplay:10.37,2013-11-23 04:25:00,
2013-11-22 23:30:00,41.2,34.8,30.34,NNE,19,2.2,4.6,78,0.00,OVC,,0.51,WeatherDisplay:10.37,2013-11-23 04:30:00,
2013-11-22 23:35:00,41.2,34.8,30.35,NW,312,4.8,8.1,78,0.00,OVC,,0.51,WeatherDisplay:10.37,2013-11-23 04:35:00,
2013-11-22 23:40:00,41.0,34.3,30.35,NW,312,4.8,8.1,77,0.00,OVC,,0.51,WeatherDisplay:10.37,2013-11-23 04:40:00,
2013-11-22 23:45:00,41.0,34.3,30.35,ENE,65,7.6,7.6,77,0.00,OVC,,0.51,WeatherDisplay:10.37,2013-11-23 04:45:00,
2013-11-22 23:50:00,40.8,34.2,30.35,North,357,2.5,3.1,77,0.00,OVC,,0.51,WeatherDisplay:10.37,2013-11-23 04:50:00,
2013-11-22 23:55:00,40.8,34.2,30.34,NE,42,3.1,5.8,77,0.00,OVC,,0.51,WeatherDisplay:10.37,2013-11-23 04:55:00,